Voltar ao catálogo

STARLINK-31236

AtivoComunicaçõesVLEO
NORAD 58841·PAYLOAD·🇺🇸 United States

Lançado Jan 24, 2024 de Vandenberg Space Force Base

Loading…

Próximas Passagens (próximas 24 horas)

TLE

AtualizadoSource: CelesTrak SupGP

Época: Sep 14, 2026, 15:01 UTC

1 58841C 24017R   26257.62618056 -.00076121  00000+0 -22491-2 0  2571
2 58841  53.1601  45.0962 0000695  90.1079   3.0492 15.34428214    19

Acompanhe STARLINK-31236 em tempo real com AllMySat

Download on the App Store